Location: Unspecified
(0.0000°N, 0.0000°E)
Time: 05:52:47
(UTC+00:00)

Safir 2 - Pass Details

Date: 26 May 2026
Orbit: 804 x 808 km, 99.0° (Epoch: 11 June)

Event Time Altitude Azimuth Distance (km) Brightness Sun altitude
Rises 04:41:31 0° 6° (N) 3,300 11.7 -17.6°
Reaches altitude 10° 04:43:52 10° 3° (N) 2,373 10.9 -17.0°
Maximum altitude 04:49:02 63° 283° (WNW) 894 8.1 -15.8°
Drops below altitude 10° 04:54:14 10° 202° (SSW) 2,383 10.1 -14.6°
Enters shadow 04:54:21 - 202° (SSW) 2,426 10.2 -14.6°
